Location: Unspecified
(52.4292°N, 19.3359°E)
Time: 14:48:33
(UTC+01:00)

A-11 Canister half - Pass Details

Date: 22 October 2025
Orbit: 1526 x 1682 km, 47.3° (Epoch: 13 November)

Event Time Altitude Azimuth Distance (km) Brightness Sun altitude
Exits shadow 00:55:49 11° 86° (E) 3,630 11.0 -48.2°
Drops below altitude 10° 00:56:04 10° 85° (E) 3,698 11.1 -48.2°
Sets 00:59:35 0° 75° (ENE) 4,681 11.8 -48.1°
